RADUGA-1M 2

Last updated on Nov. 15, 2019, 4:20 a.m. UTC

1 36358U 10002A   19318.42903660 -.00000170  00000-0  00000+0 0  9998
2 36358   0.0274 257.1857 0003890  10.8272  24.7109  1.00271895 35874
UTC
Height (km)
Latitude
Longitude
Inclination
Orbital Period
UTC large
Height (km)
Speed (km/s)
/
Latitude / Longitude
Inclination (degrees)
Orbital Period (minutes)
Azimuth
Elevation
Range (km)
Doppler Factor
iOS Compass Heading
iOS Angle

Next 30 passes for location: Hong Kong

Rise time Rise Azimuth (degrees) Set time Set Azimuth (degrees) Duration Max altitude (degrees)

No matching passes for this satellites